Location: ?????????
(55.6553°N, 38.9075°E)
Time: 05:56:55
(UTC+00:00)

Cosmos 44 - Pass Details

Date: 18 October 2019
Orbit: 593 x 769 km, 65.1° (Epoch: 16 November)

Event Time Altitude Azimuth Distance (km) Brightness Sun altitude
Exits shadow 01:16:08 57° 165° (SSE) 710 3.2 -23.6°
Drops below altitude 10° 01:19:40 10° 143° (SE) 1,927 5.8 -23.1°
Sets 01:21:54 0° 141° (SE) 2,822 6.7 -22.8°
